Location: Artiguedieu
(43.5000°N, 0.5454°E)
Time: 10:12:23
(UTC+00:00)

Vanguard 1 Rocket - Pass Details

Date: 05 August 2021
Orbit: 650 x 4226 km, 34.3° (Epoch: 24 September)

Event Time Altitude Azimuth Distance (km) Brightness Sun altitude
Rises 09:09:51 0° 238° (WSW) 8,429 12.1 44.7°
Reaches altitude 10° 09:16:14 10° 235° (SW) 7,226 11.8 45.7°
Maximum altitude 09:37:59 53° 167° (SSE) 3,339 11.5 49.3°
Drops below altitude 10° 09:50:11 10° 95° (E) 4,293 11.6 51.2°
Sets 09:52:53 0° 90° (E) 4,934 11.6 51.6°
